Погода в Огороне

Россия / Амурская область     53°57′40″N   129°08′39″E
темп.,
°C
ветер,
м/с
пор.,
м/с
влажн.,
%
обл.,
%
осадки,
мм/ч
давл.,
гПа
погр.,
м
7 марта, вс
вс700:00−25ююв449337 0.0 102843
03:00−26ююв239430 0.0 102731
06:00−25ю129599 0.0 102634
09:00−22зюз1193100 0.0 1026127
12:00−19зсз228799 0.0 1024378
15:00−18зсз228699 0.0 1023334
18:00−23ююв009525 0.0 102320
21:00−22ююв229031 0.0 102520
8 марта, пн
пн800:00−21ююв339190 0.0 102528
03:00−21ю459074 0.0 102566
06:00−20ю6119368 0.0 1023257
09:00−17ю7159284 0.2 1022394
12:00−15ю61287100 0.1 1018478
15:00−14ю5985100 0.3 1014481
18:00−14вюв2596100 0.8 1012234
21:00−14ссв1197100 2.1 101133
9 марта, вт
вт900:00−17ссв1198100 0.3 100920
03:00−19сз23100100 0.3 101049
06:00−20ссз12100100 0.1 101152
09:00−19сз2597100 0.1 1012276
12:00−15сз358699 0.0 1013395
15:00−10с388195 0.0 1015504
18:00−10сз388865 0.0 1017203
21:00−15з229249 0.0 102129
10 марта, ср
ср1000:00−17ююз11940 0.0 102221
03:00−17ю23880 0.0 102221
06:00−13ю4578100 0.0 102175
09:00−12ю61283100 0.0 1020349
12:00−10ю61279100 0.0 1017569
15:00−11ю41091100 1.4 1015534
18:00−11ююз1196100 1.2 101547
21:00−14сз3498100 1.6 101893
11 марта, чт
чт1100:00−17зсз239998 0.1 102131
03:00−17сз3108873 0.1 1023225
06:00−20сз23940 0.0 102740
09:00−16сз25860 0.0 1028252
12:00−11сз24740 0.0 1028461
15:00−8зсз25670 0.0 1027635
18:00−10ю45840 0.0 102769
21:00−12ю449622 0.0 102865